Location: East Rochester
(43.1122°N, 77.4867°W)
Time: 01:33:15
(UTC+00:00)

ISS - Visible Passes

Search period start: 18 July 2024 00:00
Search period end: 28 July 2024 00:00
Orbit: 409 x 424 km, 51.6° (Epoch: 17 July)

Date Brightness Start Highest point End Pass type
(mag) Time Alt. Az. Time Alt. Az. Time Alt. Az.
18 Jul -1.1 02:28:06 10° NW 02:30:31 19° N 02:32:58 10° NE visible
18 Jul -2.3 04:04:49 10° NW 04:07:34 35° N 04:07:34 35° N visible
19 Jul -1.1 01:39:32 10° NW 01:41:57 18° N 01:44:21 10° NE visible
19 Jul -1.9 03:16:32 10° NW 03:19:27 28° NNE 03:20:36 22° NE visible
19 Jul -0.9 04:53:06 10° WNW 04:53:29 13° WNW 04:53:29 13° WNW visible
20 Jul -1.6 02:28:10 10° NW 02:30:53 23° NNE 02:33:36 10° ENE visible
20 Jul -2.0 04:04:41 10° NW 04:06:32 31° NW 04:06:32 31° NW visible
21 Jul -1.4 01:39:43 10° NW 01:42:15 20° N 01:44:47 10° ENE visible
21 Jul -3.2 03:16:18 10° NW 03:19:32 51° NNE 03:19:37 51° NNE visible
22 Jul -2.5 02:27:54 10° NW 02:30:59 35° NNE 02:32:42 21° ENE visible
22 Jul -1.3 04:04:38 10° WNW 04:05:34 17° WNW 04:05:34 17° WNW visible
23 Jul -2.0 01:39:28 10° NW 01:42:21 27° NNE 01:45:14 10° ENE visible
23 Jul -3.1 03:16:01 10° WNW 03:18:40 50° W 03:18:40 50° W visible
24 Jul -3.8 02:27:29 10° NW 02:30:48 75° NNE 02:31:46 42° ESE visible
25 Jul -3.1 01:38:58 10° NW 01:42:11 47° NNE 01:44:53 14° E visible
25 Jul -1.8 03:16:01 10° W 03:17:45 21° WSW 03:17:45 21° WSW visible
26 Jul -3.1 02:27:08 10° WNW 02:30:17 41° SW 02:30:53 36° S visible
27 Jul -3.7 01:38:23 10° WNW 01:41:42 72° SW 01:44:03 18° SE visible
